• In Uzbekistan
  • List of Countries
  • For 7 days
  • Water Temperature
  • Satellite Maps
  • Weather Map
  • Weather Widgets
  • user-avatar
    Login

    Hourly Weather Konstantyna

    Today, 24 February, Friday

    Time Temperature Precipitation Wind Pressure Humidity
    00:00 +13°C° 0 mm 3 mps 707 mmHg 50%
    01:00 +13°C° 0 mm 3 mps 706 mmHg 50%
    02:00 +13°C° 0 mm 4 mps 706 mmHg 49%
    03:00 +14°C° 0 mm 4 mps 705 mmHg 49%
    04:00 +13°C° 0 mm 4 mps 705 mmHg 49%
    05:00 +13°C° 0 mm 3 mps 705 mmHg 50%
    06:00 +12°C° 0 mm 3 mps 704 mmHg 51%
    07:00 +14°C° 0 mm 3 mps 705 mmHg 46%
    08:00 +18°C° 0 mm 4 mps 705 mmHg 41%
    09:00 +20°C° 0 mm 5 mps 706 mmHg 37%
    10:00 +21°C° 0 mm 5 mps 706 mmHg 34%
    11:00 +21°C° 0 mm 5 mps 706 mmHg 32%
    12:00 +22°C° 0 mm 6 mps 706 mmHg 30%
    13:00 +21°C° 0 mm 5 mps 706 mmHg 35%
    14:00 +21°C° 0 mm 5 mps 706 mmHg 40%
    15:00 +20°C° 0 mm 5 mps 706 mmHg 45%
    16:00 +17°C° 0.1 mm 4 mps 706 mmHg 59%
    17:00 +14°C° 0.1 mm 3 mps 706 mmHg 73%
    18:00 +12°C° 0.1 mm 3 mps 706 mmHg 87%
    19:00 +12°C° 0.1 mm 2 mps 707 mmHg 90%
    20:00 +10°C° 0.1 mm 2 mps 707 mmHg 93%
    21:00 +11°C° 0.1 mm 1 mps 708 mmHg 95%
    22:00 +11°C° 0 mm 1 mps 708 mmHg 95%
    23:00 +11°C° 0 mm 1 mps 708 mmHg 94%

    Tomorrow, 25 February, Saturday

    Time Temperature Precipitation Wind Pressure Humidity
    00:00 +11°C° 0 mm 1 mps 709 mmHg 94%
    01:00 +11°C° 0.1 mm 1 mps 708 mmHg 94%
    02:00 +10°C° 0.1 mm 1 mps 708 mmHg 93%
    03:00 +10°C° 0.1 mm 1 mps 708 mmHg 93%
    04:00 +10°C° 0.1 mm 1 mps 709 mmHg 94%
    05:00 +10°C° 0.1 mm 1 mps 709 mmHg 94%
    06:00 +10°C° 0.1 mm 1 mps 709 mmHg 94%
    07:00 +10°C° 0.1 mm 1 mps 710 mmHg 92%
    08:00 +10°C° 0.1 mm 1 mps 710 mmHg 91%
    09:00 +9°C° 0.1 mm 2 mps 711 mmHg 89%
    10:00 +10°C° 0.1 mm 2 mps 711 mmHg 85%
    11:00 +10°C° 0.1 mm 2 mps 711 mmHg 81%
    12:00 +12°C° 0.1 mm 2 mps 711 mmHg 76%
    13:00 +11°C° 0.1 mm 3 mps 711 mmHg 75%
    14:00 +11°C° 0.1 mm 3 mps 711 mmHg 74%
    15:00 +10°C° 0.1 mm 4 mps 710 mmHg 73%
    16:00 +9°C° 0 mm 3 mps 711 mmHg 78%
    17:00 +7°C° 0 mm 3 mps 711 mmHg 84%
    18:00 +6°C° 0 mm 2 mps 711 mmHg 89%
    19:00 +5°C° 0 mm 2 mps 711 mmHg 90%
    20:00 +5°C° 0 mm 2 mps 712 mmHg 92%
    21:00 +5°C° 0 mm 1 mps 712 mmHg 93%
    22:00 +5°C° 0 mm 1 mps 712 mmHg 93%
    23:00 +5°C° 0 mm 1 mps 712 mmHg 94%

    Day after tomorrow, 26 February, Sunday

    Time Temperature Precipitation Wind Pressure Humidity
    00:00 +4°C° 0 mm 1 mps 712 mmHg 94%
    01:00 +4°C° 0 mm 1 mps 712 mmHg 94%
    02:00 +4°C° 0 mm 1 mps 711 mmHg 94%
    03:00 +3°C° 0 mm 1 mps 711 mmHg 94%
    04:00 +3°C° 0 mm 1 mps 711 mmHg 94%
    05:00 +3°C° 0 mm 1 mps 711 mmHg 94%
    06:00 +3°C° 0 mm 1 mps 712 mmHg 94%
    07:00 +5°C° 0 mm 1 mps 712 mmHg 85%
    08:00 +8°C° 0 mm 1 mps 713 mmHg 75%
    09:00 +10°C° 0 mm 1 mps 713 mmHg 65%
    10:00 +11°C° 0 mm 1 mps 713 mmHg 60%
    11:00 +12°C° 0 mm 2 mps 713 mmHg 55%
    12:00 +14°C° 0 mm 2 mps 713 mmHg 49%
    13:00 +14°C° 0 mm 2 mps 712 mmHg 50%
    14:00 +14°C° 0 mm 2 mps 712 mmHg 51%
    15:00 +13°C° 0 mm 3 mps 711 mmHg 52%
    16:00 +10°C° 0 mm 2 mps 711 mmHg 64%
    17:00 +8°C° 0 mm 2 mps 711 mmHg 76%
    18:00 +6°C° 0 mm 1 mps 711 mmHg 87%
    19:00 +5°C° 0 mm 1 mps 711 mmHg 90%
    20:00 +4°C° 0 mm 1 mps 711 mmHg 93%
    21:00 +2°C° 0 mm 0 mps 711 mmHg 96%
    22:00 +2°C° 0 mm 0 mps 711 mmHg 96%
    23:00 +3°C° 0 mm 1 mps 711 mmHg 96%

    27 February, Monday

    Time Temperature Precipitation Wind Pressure Humidity
    00:00 +3°C° 0 mm 1 mps 711 mmHg 96%
    01:00 +3°C° 0 mm 1 mps 711 mmHg 95%
    02:00 +2°C° 0 mm 1 mps 710 mmHg 95%
    03:00 +2°C° 0 mm 1 mps 710 mmHg 94%
    04:00 +2°C° 0 mm 1 mps 710 mmHg 92%
    05:00 +2°C° 0 mm 1 mps 710 mmHg 91%
    06:00 +2°C° 0 mm 1 mps 710 mmHg 89%
    07:00 +5°C° 0 mm 1 mps 711 mmHg 74%
    08:00 +9°C° 0 mm 1 mps 712 mmHg 58%
    09:00 +13°C° 0 mm 1 mps 712 mmHg 42%
    10:00 +14°C° 0 mm 1 mps 712 mmHg 38%
    11:00 +16°C° 0 mm 1 mps 712 mmHg 33%
    12:00 +18°C° 0 mm 1 mps 712 mmHg 28%
    13:00 +17°C° 0 mm 2 mps 711 mmHg 30%
    14:00 +17°C° 0 mm 2 mps 711 mmHg 32%
    15:00 +17°C° 0 mm 2 mps 710 mmHg 35%
    16:00 +14°C° 0 mm 2 mps 710 mmHg 49%
    17:00 +10°C° 0 mm 1 mps 710 mmHg 63%
    18:00 +7°C° 0 mm 1 mps 709 mmHg 77%
    19:00 +6°C° 0 mm 1 mps 709 mmHg 80%
    20:00 +6°C° 0 mm 1 mps 709 mmHg 83%
    21:00 +4°C° 0 mm 0 mps 709 mmHg 86%
    22:00 +5°C° 0 mm 1 mps 709 mmHg 84%
    23:00 +6°C° 0 mm 1 mps 709 mmHg 82%

    28 February, Tuesday

    Time Temperature Precipitation Wind Pressure Humidity
    00:00 +6°C° 0 mm 1 mps 709 mmHg 80%
    01:00 +6°C° 0 mm 1 mps 709 mmHg 78%
    02:00 +6°C° 0 mm 1 mps 709 mmHg 76%
    03:00 +6°C° 0 mm 1 mps 708 mmHg 74%
    04:00 +6°C° 0 mm 1 mps 709 mmHg 74%
    05:00 +6°C° 0 mm 1 mps 709 mmHg 74%
    06:00 +6°C° 0 mm 1 mps 709 mmHg 75%
    07:00 +9°C° 0 mm 1 mps 710 mmHg 64%
    08:00 +12°C° 0 mm 1 mps 710 mmHg 53%
    09:00 +16°C° 0 mm 1 mps 711 mmHg 43%
    10:00 +18°C° 0 mm 1 mps 711 mmHg 40%
    11:00 +20°C° 0 mm 1 mps 711 mmHg 37%
    12:00 +20°C° 0 mm 2 mps 711 mmHg 35%
    13:00 +20°C° 0 mm 2 mps 711 mmHg 36%
    14:00 +20°C° 0 mm 2 mps 710 mmHg 37%
    15:00 +20°C° 0 mm 2 mps 710 mmHg 39%
    16:00 +17°C° 0 mm 2 mps 710 mmHg 53%
    17:00 +13°C° 0 mm 2 mps 710 mmHg 68%
    18:00 +10°C° 0 mm 1 mps 710 mmHg 82%
    19:00 +9°C° 0 mm 1 mps 710 mmHg 86%
    20:00 +8°C° 0 mm 1 mps 710 mmHg 89%
    21:00 +6°C° 0 mm 0 mps 710 mmHg 92%
    22:00 +7°C° 0 mm 1 mps 710 mmHg 92%
    23:00 +7°C° 0 mm 1 mps 710 mmHg 91%

    1 March, Wednesday

    Time Temperature Precipitation Wind Pressure Humidity
    00:00 +7°C° 0 mm 1 mps 710 mmHg 91%
    01:00 +6°C° 0 mm 1 mps 710 mmHg 90%
    02:00 +6°C° 0 mm 1 mps 710 mmHg 90%
    03:00 +6°C° 0 mm 1 mps 710 mmHg 90%
    04:00 +6°C° 0 mm 1 mps 710 mmHg 89%
    05:00 +4°C° 0 mm 0 mps 710 mmHg 89%
    06:00 +4°C° 0 mm 0 mps 710 mmHg 89%
    07:00 +8°C° 0 mm 0 mps 711 mmHg 75%
    08:00 +12°C° 0 mm 0 mps 712 mmHg 62%
    09:00 +16°C° 0 mm 0 mps 713 mmHg 48%
    10:00 +19°C° 0 mm 1 mps 713 mmHg 44%
    11:00 +20°C° 0 mm 1 mps 713 mmHg 40%
    12:00 +21°C° 0 mm 2 mps 713 mmHg 36%
    13:00 +20°C° 0 mm 2 mps 713 mmHg 38%
    14:00 +20°C° 0 mm 2 mps 712 mmHg 39%
    15:00 +20°C° 0 mm 2 mps 712 mmHg 41%
    16:00 +17°C° 0 mm 2 mps 712 mmHg 56%
    17:00 +14°C° 0 mm 2 mps 711 mmHg 71%
    18:00 +11°C° 0 mm 1 mps 711 mmHg 86%
    19:00 +10°C° 0 mm 1 mps 711 mmHg 89%
    20:00 +9°C° 0 mm 1 mps 711 mmHg 92%
    21:00 +9°C° 0 mm 1 mps 711 mmHg 94%
    22:00 +9°C° 0 mm 1 mps 711 mmHg 94%
    23:00 +9°C° 0 mm 1 mps 711 mmHg 93%
    Show more